Time,TemperatureF,DewpointF,PressureIn,WindDirection,WindDirectionDegrees,WindSpeedMPH,WindSpeedGustMPH,Humidity,HourlyPrecipIn,Conditions,Clouds,dailyrainin,SolarRadiationWatts/m^2,SoftwareType,DateUTC
2013-12-05 00:22:00,-16.0,-23.0,-100.00,West,267,7.0,11.0,68,0.00,,,0.00,0.000000,,2013-12-05 07:22:00,
2013-12-05 00:32:00,-16.0,-23.0,-100.00,West,267,7.0,11.0,68,0.00,,,0.00,0.000000,,2013-12-05 07:32:00,
2013-12-05 00:42:00,-16.0,-23.0,-100.00,West,267,7.0,11.0,68,0.00,,,0.00,0.000000,,2013-12-05 07:42:00,
2013-12-05 00:52:00,-14.0,-21.0,-100.00,WSW,256,8.0,14.0,69,0.00,,,0.00,0.000000,,2013-12-05 07:52:00,
2013-12-05 01:22:00,-14.0,-21.0,-100.00,WSW,256,8.0,14.0,69,0.00,,,0.00,0.000000,,2013-12-05 08:22:00,
2013-12-05 01:32:00,-14.0,-21.0,-100.00,WSW,256,8.0,14.0,69,0.00,,,0.00,0.000000,,2013-12-05 08:32:00,
2013-12-05 01:42:00,-14.0,-21.0,-100.00,WSW,256,8.0,14.0,69,0.00,,,0.00,0.000000,,2013-12-05 08:42:00,
2013-12-05 01:52:00,-13.0,-20.0,-100.00,WSW,249,8.0,15.0,69,0.00,,,0.00,0.000000,,2013-12-05 08:52:00,
2013-12-05 02:22:00,-13.0,-20.0,-100.00,WSW,249,8.0,15.0,69,0.00,,,0.00,0.000000,,2013-12-05 09:22:00,
2013-12-05 02:33:00,-13.0,-20.0,-100.00,WSW,249,8.0,15.0,69,0.00,,,0.00,0.000000,,2013-12-05 09:33:00,
2013-12-05 02:43:00,-13.0,-20.0,-100.00,WSW,249,8.0,15.0,69,0.00,,,0.00,0.000000,,2013-12-05 09:43:00,
2013-12-05 02:52:00,-13.0,-20.0,-100.00,WSW,256,7.0,12.0,69,0.00,,,0.00,0.000000,,2013-12-05 09:52:00,
2013-12-05 03:23:00,-13.0,-20.0,-100.00,WSW,256,7.0,12.0,69,0.00,,,0.00,0.000000,,2013-12-05 10:23:00,
2013-12-05 03:33:00,-13.0,-20.0,-100.00,WSW,256,7.0,12.0,69,0.00,,,0.00,0.000000,,2013-12-05 10:33:00,
2013-12-05 03:43:00,-13.0,-20.0,-100.00,WSW,256,7.0,12.0,69,0.00,,,0.00,0.000000,,2013-12-05 10:43:00,
2013-12-05 04:22:00,-11.0,-18.0,-100.00,WSW,249,8.0,15.0,69,0.00,,,0.00,0.000000,,2013-12-05 11:22:00,
2013-12-05 04:33:00,-11.0,-18.0,-100.00,WSW,249,8.0,15.0,69,0.00,,,0.00,0.000000,,2013-12-05 11:33:00,
2013-12-05 04:52:00,-11.0,-18.0,-100.00,WSW,257,9.0,14.0,69,-99.99,,,0.00,0.000000,,2013-12-05 11:52:00,
2013-12-05 05:22:00,-11.0,-18.0,-100.00,WSW,257,9.0,14.0,69,-99.99,,,0.00,0.000000,,2013-12-05 12:22:00,
2013-12-05 05:32:00,-11.0,-18.0,-100.00,WSW,257,9.0,14.0,69,-99.99,,,0.00,0.000000,,2013-12-05 12:32:00,
2013-12-05 05:42:00,-11.0,-18.0,-100.00,WSW,257,9.0,14.0,69,-99.99,,,0.00,0.000000,,2013-12-05 12:42:00,
2013-12-05 05:52:00,-11.0,-18.0,-100.00,West,265,7.0,14.0,69,0.00,,,0.00,0.000000,,2013-12-05 12:52:00,
2013-12-05 06:22:00,-11.0,-18.0,-100.00,West,265,7.0,14.0,69,0.00,,,0.00,0.000000,,2013-12-05 13:22:00,
2013-12-05 06:32:00,-11.0,-18.0,-100.00,West,265,7.0,14.0,69,0.00,,,0.00,0.000000,,2013-12-05 13:32:00,
2013-12-05 06:42:00,-11.0,-18.0,-100.00,West,265,7.0,14.0,69,0.00,,,0.00,0.000000,,2013-12-05 13:42:00,
2013-12-05 06:52:00,-14.0,-22.0,-100.00,WNW,290,3.0,11.0,67,0.00,,,0.00,0.000000,,2013-12-05 13:52:00,
2013-12-05 07:22:00,-14.0,-22.0,-100.00,WNW,290,3.0,11.0,67,0.00,,,0.00,0.000000,,2013-12-05 14:22:00,
2013-12-05 07:32:00,-14.0,-22.0,-100.00,WNW,290,3.0,11.0,67,0.00,,,0.00,0.000000,,2013-12-05 14:32:00,
2013-12-05 07:52:00,-17.0,-25.0,-100.00,West,268,4.0,7.0,67,0.00,,,0.00,4.000000,,2013-12-05 14:52:00,
2013-12-05 08:22:00,-17.0,-25.0,-100.00,West,268,4.0,7.0,67,0.00,,,0.00,4.000000,,2013-12-05 15:22:00,
2013-12-05 08:34:00,-17.0,-25.0,-100.00,West,268,4.0,7.0,67,0.00,,,0.00,4.000000,,2013-12-05 15:34:00,
2013-12-05 08:43:00,-17.0,-25.0,-100.00,West,268,4.0,7.0,67,0.00,,,0.00,4.000000,,2013-12-05 15:43:00,
2013-12-05 08:52:00,-6.0,-14.0,-100.00,West,272,6.0,9.0,67,0.00,,,0.00,90.000000,,2013-12-05 15:52:00,
2013-12-05 09:23:00,-6.0,-14.0,-100.00,West,272,6.0,9.0,67,0.00,,,0.00,90.000000,,2013-12-05 16:23:00,
2013-12-05 09:33:00,-6.0,-14.0,-100.00,West,272,6.0,9.0,67,0.00,,,0.00,90.000000,,2013-12-05 16:33:00,
2013-12-05 09:43:00,-6.0,-14.0,-100.00,West,272,6.0,9.0,67,0.00,,,0.00,90.000000,,2013-12-05 16:43:00,
2013-12-05 09:52:00,1.0,-10.0,-100.00,WSW,245,8.0,15.0,58,0.00,,,0.00,191.000000,,2013-12-05 16:52:00,
2013-12-05 10:23:00,1.0,-10.0,-100.00,WSW,245,8.0,15.0,58,0.00,,,0.00,191.000000,,2013-12-05 17:23:00,
2013-12-05 10:33:00,1.0,-10.0,-100.00,WSW,245,8.0,15.0,58,0.00,,,0.00,191.000000,,2013-12-05 17:33:00,
2013-12-05 10:42:00,1.0,-10.0,-100.00,WSW,245,8.0,15.0,58,0.00,,,0.00,191.000000,,2013-12-05 17:42:00,
2013-12-05 10:52:00,4.0,-8.0,-100.00,West,260,8.0,15.0,57,0.00,,,0.00,220.000000,,2013-12-05 17:52:00,
2013-12-05 11:22:00,4.0,-8.0,-100.00,West,260,8.0,15.0,57,0.00,,,0.00,220.000000,,2013-12-05 18:22:00,
2013-12-05 11:33:00,4.0,-8.0,-100.00,West,260,8.0,15.0,57,0.00,,,0.00,220.000000,,2013-12-05 18:33:00,
2013-12-05 11:42:00,4.0,-8.0,-100.00,West,260,8.0,15.0,57,0.00,,,0.00,220.000000,,2013-12-05 18:42:00,
2013-12-05 11:52:00,7.0,-6.0,-100.00,SW,217,7.0,14.0,53,0.00,,,0.00,232.000000,,2013-12-05 18:52:00,
2013-12-05 12:21:00,7.0,-6.0,-100.00,SW,217,7.0,14.0,53,0.00,,,0.00,232.000000,,2013-12-05 19:21:00,
2013-12-05 12:32:00,7.0,-6.0,-100.00,SW,217,7.0,14.0,53,0.00,,,0.00,232.000000,,2013-12-05 19:32:00,
2013-12-05 12:42:00,7.0,-6.0,-100.00,SW,217,7.0,14.0,53,0.00,,,0.00,232.000000,,2013-12-05 19:42:00,
2013-12-05 12:52:00,7.0,-7.0,-100.00,SW,218,7.0,15.0,51,0.00,,,0.00,576.000000,,2013-12-05 19:52:00,
2013-12-05 13:22:00,7.0,-7.0,-100.00,SW,218,7.0,15.0,51,0.00,,,0.00,576.000000,,2013-12-05 20:22:00,
2013-12-05 13:32:00,7.0,-7.0,-100.00,SW,218,7.0,15.0,51,0.00,,,0.00,576.000000,,2013-12-05 20:32:00,
2013-12-05 13:42:00,7.0,-7.0,-100.00,SW,218,7.0,15.0,51,0.00,,,0.00,576.000000,,2013-12-05 20:42:00,
2013-12-05 13:52:00,7.0,-8.0,-100.00,SW,236,7.0,16.0,49,0.00,,,0.00,594.000000,,2013-12-05 20:52:00,
2013-12-05 14:22:00,7.0,-8.0,-100.00,SW,236,7.0,16.0,49,0.00,,,0.00,594.000000,,2013-12-05 21:22:00,
2013-12-05 14:33:00,7.0,-8.0,-100.00,SW,236,7.0,16.0,49,0.00,,,0.00,594.000000,,2013-12-05 21:33:00,
2013-12-05 14:44:00,7.0,-8.0,-100.00,SW,236,7.0,16.0,49,0.00,,,0.00,594.000000,,2013-12-05 21:44:00,
2013-12-05 14:52:00,7.0,-7.0,-100.00,SSW,213,6.0,12.0,51,0.00,,,0.00,431.000000,,2013-12-05 21:52:00,
2013-12-05 15:24:00,7.0,-7.0,-100.00,SSW,213,6.0,12.0,51,0.00,,,0.00,431.000000,,2013-12-05 22:24:00,
2013-12-05 15:34:00,7.0,-7.0,-100.00,SSW,213,6.0,12.0,51,0.00,,,0.00,431.000000,,2013-12-05 22:34:00,
2013-12-05 15:42:00,7.0,-7.0,-100.00,SSW,213,6.0,12.0,51,0.00,,,0.00,431.000000,,2013-12-05 22:42:00,
2013-12-05 15:52:00,4.0,-9.0,-100.00,SSW,196,5.0,10.0,55,0.00,,,0.00,243.000000,,2013-12-05 22:52:00,
2013-12-05 16:22:00,4.0,-9.0,-100.00,SSW,196,5.0,10.0,55,0.00,,,0.00,243.000000,,2013-12-05 23:22:00,
2013-12-05 16:33:00,4.0,-9.0,-100.00,SSW,196,5.0,10.0,55,0.00,,,0.00,243.000000,,2013-12-05 23:33:00,
2013-12-05 16:43:00,4.0,-9.0,-100.00,SSW,196,5.0,10.0,55,0.00,,,0.00,243.000000,,2013-12-05 23:43:00,
2013-12-05 16:52:00,-7.0,-15.0,-100.00,WNW,291,3.0,7.0,68,0.00,,,0.00,37.000000,,2013-12-05 23:52:00,
2013-12-05 17:22:00,-7.0,-15.0,-100.00,WNW,291,3.0,7.0,68,0.00,,,0.00,37.000000,,2013-12-06 00:22:00,
2013-12-05 17:32:00,-7.0,-15.0,-100.00,WNW,291,3.0,7.0,68,0.00,,,0.00,37.000000,,2013-12-06 00:32:00,
2013-12-05 17:42:00,-7.0,-15.0,-100.00,WNW,291,3.0,7.0,68,0.00,,,0.00,37.000000,,2013-12-06 00:42:00,
2013-12-05 17:52:00,-16.0,-23.0,-100.00,WNW,296,0.0,2.0,68,0.00,,,0.00,0.000000,,2013-12-06 00:52:00,
2013-12-05 18:42:00,-16.0,-23.0,-100.00,WNW,296,0.0,2.0,68,0.00,,,0.00,0.000000,,2013-12-06 01:42:00,
2013-12-05 19:42:00,-22.0,-30.0,-100.00,WNW,299,0.0,2.0,66,0.00,,,0.00,0.000000,,2013-12-06 02:42:00,
2013-12-05 19:52:00,-27.0,-36.0,-100.00,West,274,0.0,2.0,62,-99.99,,,0.00,0.000000,,2013-12-06 02:52:00,
2013-12-05 20:43:00,-27.0,-36.0,-100.00,West,274,0.0,2.0,62,-99.99,,,0.00,0.000000,,2013-12-06 03:43:00,